Location: Hamayl? Da??
(36.7028°N, 30.1716°E)
Time: 07:50:42
(UTC+00:00)

Meteor 2-3 Rocket - Pass Details

Date: 04 August 2024
Orbit: 844 x 882 km, 81.2° (Epoch: 10 September)

Event Time Altitude Azimuth Distance (km) Brightness Sun altitude
Exits shadow 19:31:30 36° 208° (SSW) 1,318 4.5 -25.2°
Maximum altitude 19:33:48 68° 280° (W) 914 3.9 -25.5°
Drops below altitude 10° 19:39:23 10° 3° (N) 2,475 6.7 -26.3°
Sets 19:41:49 0° 6° (N) 3,412 7.5 -26.6°
